#timestamp,LO_Frequency,Hit,StdDev 
1654203615.8,286047000.7,N
1654203635.7,286046998.7,N
1654203655.5,286047000.7,N
1654203675.3,286046998.7,N
1654203695.2,286047000.9,N
1654203715.0,286047002.0,N
1654203715.9,286047002.0,N
1654203735.7,286047000.1,N
1654203755.6,286047000.7,N
1654203775.4,286047002.1,N
1654203795.2,286047002.4,N
1654203815.1,286047002.3,N
1654203816.0,286047002.3,N
1654203835.8,286047000.0,N
1654203855.6,286047002.5,N
1654203875.5,286047001.7,N
1654203895.3,286047001.7,N
1654203915.1,286047004.3,Y
1654203935.9,286047004.0,P
1654203955.7,286047002.4,N
1654203975.5,286047002.3,N
1654203995.4,286047001.4,N
1654204015.2,286047003.9,Y
1654204035.0,286047002.6,P
1654204036.0,286047002.6,P
1654204055.8,286047000.1,N
1654204075.6,286046999.4,N
1654204095.5,286047000.5,N
1654204115.3,286047000.9,N
1654204135.1,286046996.9,N
1654204155.9,286046998.9,N
1654204175.7,286046996.7,N
1654204195.5,286046997.1,N
1654204215.4,286046997.2,N
1654204235.2,286046999.5,N
1654204255.0,286046999.5,N
1654204255.9,286046999.5,N
1654204275.8,286046996.1,N
1654204295.6,286046998.0,N
1654204315.4,286046995.1,N
1654204335.3,286046996.2,N
1654204355.1,286046995.0,N
1654204356.0,286046995.0,N
1654204375.8,286046995.6,N
1654204395.7,286046995.2,N
1654204415.5,286046999.1,N
1654204435.3,286046995.0,N
1654204455.2,286046997.8,N
1654204475.9,286046998.6,N
1654204495.7,286046999.1,N
1654204515.6,286046997.5,N
1654204535.4,286047000.8,N
1654204555.2,286046995.8,N
1654204575.1,286046998.0,N
1654204576.0,286046998.0,N
1654204595.8,286046997.9,N
1654204615.6,286046996.1,N
1654204635.5,286046993.3,Y
1654204655.3,286046995.7,P
1654204675.1,286046995.9,P
1654204695.9,286046995.8,P
1654204715.7,286046995.0,Y
1654204735.5,286046998.2,P
1654204755.4,286046998.3,N
1654204775.2,286047000.9,N
1654204795.0,286047001.0,N
1654204795.9,286047001.0,N
1654204815.8,286046999.2,N
1654204835.6,286046996.9,N
1654204855.4,286046999.0,N
1654204875.3,286047000.9,N
1654204895.1,286046998.7,N
1654204896.0,286046998.7,N
1654204915.8,286046998.1,N
1654204935.7,286046998.9,N
1654204955.5,286046999.3,N
1654204975.3,286046997.5,N
1654204995.2,286046995.3,Y
1654205015.9,286046997.7,P
1654205035.7,286047001.2,N
1654205055.6,286046998.9,N
1654205075.4,286047000.3,N
1654205095.2,286047001.8,N
1654205115.1,286047001.9,N
1654205116.0,286047001.9,N
1654205135.8,286047001.0,N
1654205155.6,286046998.7,N
1654205175.5,286046997.0,N
1654205195.3,286046998.3,N
1654205215.1,286046999.0,N
1654205235.9,286047000.1,N
1654205255.7,286047000.1,N
1654205275.5,286046999.7,N
1654205295.4,286046999.8,N
1654205315.2,286047000.2,N
1654205335.0,286047000.0,N
1654205335.9,286047000.0,N
1654205355.8,286047000.8,N
1654205375.6,286046998.5,N
1654205395.4,286047000.8,N
1654205415.3,286047000.9,N
1654205435.1,286046998.5,N
1654205436.0,286046998.5,N
1654205455.8,286047000.1,N
1654205475.7,286047002.0,N
1654205495.5,286047003.9,N
1654205515.3,286047001.6,N
1654205535.2,286047001.3,N
1654205555.9,286047004.9,Y
1654205575.7,286047003.9,P
1654205595.6,286047001.3,N
1654205615.4,286047004.1,N
1654205635.2,286047005.2,Y
1654205655.1,286047003.5,P
1654205656.0,286047003.5,P
1654205675.8,286047005.0,P
1654205695.6,286047002.9,Y
1654205715.5,286047000.4,P
1654205735.3,286047001.1,N
1654205755.1,286046998.8,N
1654205775.9,286047000.4,N
1654205795.7,286047000.1,N
1654205815.5,286047000.6,N
1654205835.4,286046999.4,N
1654205855.2,286046999.4,N
1654205875.0,286046999.2,N
1654205875.9,286046999.2,N
1654205895.8,286046999.1,N
1654205915.6,286046999.3,N
1654205935.4,286046999.5,N
1654205955.3,286046997.2,N
1654205975.1,286046997.1,N
1654205995.8,286047001.1,N
1654206015.7,286046996.8,N
1654206035.5,286046996.8,N
1654206055.3,286046996.6,N
1654206075.2,286046998.8,N
1654206095.0,286046995.1,N
1654206095.9,286046995.1,N
1654206115.7,286046995.1,N
1654206165.6,286046994.6,E
1654206175.5,286046996.8,N
1654206195.4,286046998.6,P
1654206215.2,286047000.5,N
1654206235.0,286047004.0,N
1654206235.9,286047004.0,N
1654206255.8,286046999.9,N
1654206275.6,286047001.0,N
1654206295.4,286046998.3,N
1654206315.3,286046996.9,N
1654206335.1,286047002.1,N
1654206336.0,286047002.1,N
1654206355.8,286047002.3,N
1654206375.7,286047000.5,N
1654206395.5,286047000.8,N
1654206415.3,286047000.1,N
1654206435.2,286046998.3,N
1654206455.9,286046998.4,N
1654206475.7,286046998.1,N
1654206495.6,286047000.8,N
1654206515.4,286047001.2,N
1654206535.2,286046998.5,N
1654206555.1,286046999.6,N
1654206556.0,286046999.6,N
1654206575.8,286046997.3,N
1654206595.6,286046999.0,N
1654206615.5,286046997.1,N
1654206635.3,286046993.9,Y
1654206655.1,286046997.4,P
1654206675.9,286046997.3,N
1654206695.7,286046995.4,P
1654206715.5,286046994.1,Y
1654206735.4,286046999.1,P
1654206755.2,286046996.7,P
1654206775.0,286046994.9,P
1654206775.9,286046994.9,Y
1654206795.8,286046999.1,P
1654206815.6,286047001.1,N
1654206835.4,286047000.1,N
1654206855.3,286047002.5,N
1654206875.1,286047002.3,N
1654206895.8,286047000.3,N
1654206915.7,286047001.0,N
1654206935.5,286047001.1,N
1654206955.3,286046998.4,N
1654206975.2,286046996.6,N
1654206995.0,286047000.8,N
1654206995.9,286047000.8,N
1654207015.7,286047000.9,N
1654207035.6,286046999.9,N
1654207055.4,286047002.5,N
1654207075.2,286046998.8,N
1654207095.1,286047000.6,N
1654207096.0,286047000.6,N
1654207115.8,286046999.9,N
1654207135.6,286046999.0,N
1654207155.5,286046999.6,N
1654207175.3,286047001.1,N
1654207195.1,286047001.2,N
